Location: *
(44.2394°S, 173.4761°W)
Time: 02:57:35
(UTC+00:00)

Daily predictions for brighter satellites

Satellite Brightness Start Highest point End
(mag) Time Altitude Azimuth Time Altitude Azimuth Time Altitude Azimuth
BREEZE M DEB (TANK) 3.1 04:36:02 10° NNW 04:37:52 23° NE 04:39:45 10° E
Meteor 1-31 Rocket 3.4 04:36:10 10° SSE 04:39:56 38° E 04:43:38 10° NNE
Cosmos 2151 3.8 04:36:07 10° NNE 04:39:58 32° E 04:43:53 10° SSE
Cosmos 1607 4.3 04:35:54 10° NW 04:42:10 72° SW 04:48:34 10° SSE
PSLV R/B 4.5 04:40:24 10° S 04:44:32 50° WSW 04:48:37 10° NNW
USA 308 3.2 04:41:14 10° SW 04:45:21 45° SSE 04:49:25 10° ENE
SL-16 R/B 3.7 04:44:01 10° S 04:47:27 16° SE 04:50:52 10° E
CZ-2C R/B 4.3 04:44:38 10° S 04:48:28 39° WSW 04:52:14 10° NW
Cosmos 1302 Rocket 4.1 04:44:29 10° NNW 04:49:44 83° WSW 04:55:05 10° SSE
COSMOS 2406 3.3 04:46:32 10° NNW 04:52:09 66° ENE 04:57:50 10° SSE
COSMO-SKYMED 1 2.7 04:48:24 10° NNE 04:52:47 82° WNW 04:57:14 10° SSW
Landsat 5 4.3 04:51:10 10° NE 04:55:06 31° ESE 04:58:58 10° S
Cosmos 1833 Rocket 3.1 04:54:21 10° NW 05:00:00 69° WSW 05:05:43 10° SSE
Cosmos 2173 Rocket 4.0 04:53:45 10° S 05:00:09 66° E 05:06:22 10° NNE
Cosmos 1782 3.0 04:57:16 10° S 05:01:11 48° ESE 05:05:01 10° NNE
Cosmos 2016 Rocket 4.3 04:56:49 10° S 05:02:50 45° ESE 05:08:50 10° NNE
Cosmos 1992 Rocket 4.1 05:00:51 10° N 05:06:01 62° ENE 05:11:15 10° SSE
SeaSat 1 4.1 05:02:05 10° S 05:06:22 29° SW 05:10:36 10° WNW
USA 305 2.8 05:02:30 10° SW 05:06:45 70° SE 05:10:56 10° ENE
Cosmos 1486 Rocket 4.1 05:02:37 10° SSW 05:07:59 60° ESE 05:13:16 10° NNE
Cosmos 2360 Rocket 4.0 05:06:45 10° SSE 05:08:46 12° SE 05:09:27 12° SE
Cosmos 1727 Rocket 4.4 05:02:48 10° NNW 05:09:02 70° W 05:15:19 10° S
Cosmos 1933 3.3 05:05:45 10° S 05:09:53 82° E 05:13:57 10° N
Cosmos 2278 4.1 05:05:10 10° SSW 05:10:35 42° ESE 05:15:56 10° NE
SMAP 4.0 05:06:45 10° SE 05:10:47 27° E 05:14:47 10° NNE
Lacrosse 5 rocket 3.2 05:08:35 10° SSW 05:11:00 15° S 05:12:32 13° SE
Cosmos 1939 Rocket 3.0 05:07:24 10° SSE 05:11:14 50° E 05:15:01 10° N
Cosmos 1151 Rocket 4.0 05:14:00 10° SSE 05:17:44 25° ESE 05:21:22 10° NE
Cosmos 1076 Rocket 3.8 05:14:01 10° NNW 05:18:23 72° W 05:22:48 10° S
Meteor PRIRODA 4.3 05:16:58 14° SE 05:19:49 35° E 05:23:15 10° NNE
BREEZE-M DEB (TANK) 3.3 05:14:08 10° WSW 05:22:14 57° NW 05:25:20 10° NE
Cosmos 1802 Rocket 4.0 05:15:56 10° S 05:22:27 75° E 05:28:54 10° NNE
Meteor 2-3 Rocket 3.9 05:17:11 10° NNW 05:22:49 77° W 05:28:34 10° S
Cosmos 1459 Rocket 4.0 05:17:19 10° S 05:23:35 87° W 05:29:52 10° N
USA 281 3.8 05:21:17 11° SE 05:27:08 37° ENE 05:33:11 10° N
Orbus 7S? 4.3 05:24:58 10° SW 05:28:05 21° SSE 05:28:31 21° SSE
ATLAS 2AS CENTAUR R/B 3.9 05:22:13 10° SW 05:29:01 49° WNW 05:36:11 10° N
CZ-2D R/B 3.9 05:30:12 25° ESE 05:31:35 33° E 05:35:04 10° NNE
ARGOS 4.1 05:30:54 22° ESE 05:32:43 26° E 05:37:09 10° NNE
Cosmos 1812 2.6 05:29:17 10° S 05:33:12 84° E 05:37:04 10° N
Cosmos 2100 Rocket 4.5 05:29:54 10° SSW 05:36:11 65° W 05:42:19 10° N
CZ-4B R/B 3.0 05:34:48 23° SE 05:36:51 46° E 05:40:38 10° N
CZ-2C R/B 4.5 05:32:53 10° S 05:37:17 35° WSW 05:41:45 10° NW
Cosmos 1503 Rocket 3.9 05:32:41 10° SSW 05:37:54 65° ESE 05:43:04 10° NNE
SJ 16-02 1.9 05:33:53 10° S 05:38:00 34° ESE 05:39:38 26° ENE
Cosmos 1980 Rocket 2.4 05:35:52 10° SSW 05:41:31 74° WNW 05:47:06 10° NNE
Meteor 2-6 Rocket 4.1 05:36:16 10° S 05:41:52 60° ESE 05:47:15 10° NNE
CZ-4C R/B 2.9 05:40:48 10° NNE 05:43:58 52° ESE 05:47:16 10° S
USA 306 3.3 05:44:38 10° WSW 05:48:49 61° NW 05:52:10 15° NE
DELTA 2 R/B (1) 4.2 05:43:31 10° WNW 05:48:53 47° NNE 05:51:36 27° ENE
H-2A R/B 4.4 05:52:27 11° SSE 05:52:27 11° SSE 05:52:46 10° S
Aureole 1 Rocket 4.3 05:42:40 10° SSW 05:49:46 68° WNW 05:55:10 10° N
Cosmos 2322 Rocket 3.0 05:46:03 10° S 05:51:05 30° SE 05:51:23 30° ESE
RESURS DK-1 2.9 05:48:12 10° SSW 05:52:22 61° WNW 05:56:28 10° NNE
USA 307 3.2 05:49:55 10° WSW 05:54:07 64° NW 05:56:49 21° NE
Cosmos 2082 Rocket 2.7 05:48:47 10° NW 05:54:21 60° WSW 05:59:35 12° SSE
USA 215 3.2 05:53:47 14° NE 05:59:40 86° SE 06:06:20 10° SW
H-2A R/B 1.8 05:55:24 11° SSE 06:00:14 79° ENE 06:05:11 10° N
Cosmos 2333 Rocket 4.0 05:58:11 10° S 06:00:00 15° SSE 06:00:00 15° SSE
Cosmos 2123 Rocket 4.3 05:55:56 10° NNW 06:02:16 70° W 06:08:40 10° S
ERBS 3.3 06:01:05 10° SW 06:03:05 33° SSW 06:03:05 33° SSW
Cosmos 1862 3.5 06:00:29 10° NNW 06:04:28 73° W 06:07:13 20° S
Cosmos 1766 Rocket 3.5 06:00:13 10° N 06:04:29 57° E 06:04:51 55° ESE
IRIDIUM 104 4.3 05:59:52 10° NNE 06:05:00 56° E 06:09:31 14° SSE
Cosmos 2061 Rocket 4.2 05:59:17 10° SSW 06:05:42 73° W 06:11:58 10° N
Okean 3 Rocket 3.9 06:01:27 10° NNE 06:05:26 47° ENE 06:05:26 47° ENE
Cosmos 1725 Rocket 4.3 05:59:46 10° SSW 06:06:04 70° W 06:12:18 10° N
Lacrosse 5 2.6 06:01:55 10° SW 06:06:38 35° SSE 06:06:47 35° SSE
CZ-2C R/B 2.9 06:05:15 10° NW 06:08:04 20° N 06:08:37 19° N
ADEOS 4.1 06:05:10 10° S 06:10:23 59° WSW 06:15:32 10° NNW
CORIOLIS 4.1 06:05:10 11° SSE 06:10:30 83° ENE 06:16:00 10° NNW
Cosmos 2219 Rocket 4.3 06:08:04 10° S 06:08:49 12° SSE 06:08:49 12° SSE
IRIDIUM 114 4.2 06:08:54 10° N 06:14:07 68° E 06:18:41 14° S
Cosmos 2084 3.9 06:10:26 10° NW 06:15:16 72° SW 06:16:41 45° SSE
IRIDIUM 103 4.2 06:17:59 10° N 06:23:15 82° E 06:27:49 14° S
USA 308 4.2 06:21:00 10° WSW 06:24:54 36° NW 06:26:33 26° N
NOAA 6 4.2 06:29:17 26° S 06:32:17 73° WSW 06:37:24 10° NNW
SL-16 R/B 2.0 06:26:47 10° SSW 06:32:33 78° ESE 06:33:22 65° NE
Cosmos 1932 4.5 06:28:11 10° NNW 06:34:33 60° ENE 06:34:45 60° ENE
GEOS 3 Rocket 4.2 06:38:59 44° NNE 06:38:59 44° NNE 06:42:53 10° NNW
Cosmos 1777 Rocket 4.1 06:35:09 10° SSW 06:40:25 71° WNW 06:42:25 38° N
Lacrosse 5 rocket 3.8 06:47:19 10° SW 06:48:04 15° SSW 06:48:04 15° SSW
Cosmos 2360 Rocket 3.5 06:48:32 10° SSW 06:51:15 28° S 06:51:15 28° S
CZ-4B DEB 4.4 06:59:36 70° W 06:59:36 70° W 07:04:46 10° NNW
ATLAS 5 CENTAUR R/B 4.1 06:56:27 10° N 06:59:37 25° NNE 06:59:37 25° NNE
Meteor 1-27 Rocket 4.1 06:59:57 10° SSW 07:04:59 61° WSW 07:04:59 61° WSW
USA 281 4.0 07:08:10 26° S 07:11:42 47° WSW 07:17:58 10° NW
ARGOS 4.1 07:12:25 43° SW 07:13:10 46° WSW 07:18:18 10° NW
SJ 16-02 3.5 07:12:46 10° SW 07:16:21 24° W 07:16:45 23° WNW
Cosmos 2322 Rocket 3.7 07:29:51 10° SW 07:33:15 33° WSW 07:33:15 33° WSW
Lacrosse 5 4.4 07:44:49 10° SW 07:45:59 17° SW 07:45:59 17° SW
